User: anonymous   Login
Location: Brno
(49.2000°N, 16.6330°E)
Time: 18:23:21
(UTC+02:00)
Language:

BREEZE M DEB (TANK) - Orbit

View from above orbital plane
View from above orbital plane
View from above satellite
View from above satellite

Ground track
Ground track

The orbit data is extracted from the following two-line orbital elements,

1 28359U 04022B   15213.88545762  .00003595  00000-0  42856-3 0  9992
2 28359 049.5454 009.2449 4696915 006.7577 092.1900 06.15721272242901
Epoch (UTC): 01 August 2015 21:15:03
Eccentricity: 0.4696915
inclination: 49.5454°
perigee height: 290 km
apogee height: 12102 km
right ascension of ascending node: 9.2449°
argument of perigee: 6.7577°
revolutions per day: 6.15721272
mean anomaly at epoch: 92.1900°
orbit number at epoch: 24290

The dashed part of the orbit path shows where the satellite is in the earth's shadow,  

DLR